SL-16 DEB, 22620

Orbit data source: Space-Track

SL-16 DEB, 22620 is space debris in LEO originally from a launch on Fri, 26 Mar 1993 UTC launched from the Tyuratam Missile And Space Complex (TTMTR). Debris objects in space refer to the collection of defunct objects orbiting the Earth. Examples of debris include non-operational satellites, rocket bodies, and fragments generated from explosions, collisions, or faulty payload assembly.

Loading next visibility...
Identifier
22620, 1993-016AE
Orbit
LEO
Country
Flag of CISCIS
Related business
Manufacturer
Unknown
Mission
Spacecraft
Bus & Motor
Unknown
Mass
Unknown
Launch date (UTC)
1993-03-26 (33 years ago)
Launch vehicle
Unknown
Launch site
Tyuratam Missile And Space Complex (TTMTR)
Object type
Payload
Rocket body
Debris
Shape & HBR
Unknown shape, 0.3 m
Radar Cross Section
Medium (>0.1 m² and <1 m²)

Expand to show TLE details & history
Last TLE update: 2 days ago

TLE from 2 days ago
0 SL-16 DEB
1 22620U 93016AE  26171.42138536 -.00000021  00000-0  19246-4 0  9990
2 22620  71.0044 189.5676 0135252 207.1046 263.0962 13.84131335677987
Epoch: 2026-06-20T10:06Z
TLE epoch observation values (Epoch: 2026-06-20T10:06:47.695Z)
Latitude
63.71624°
Longitude
-94.66677°
Altitude
972.928 km
Speed
7.365 km/s
True Right ascension
21h 42m 40s
True Declination
63° 35' 00"
Sunlit
Object was in daylight at epoch
Visualization orbit readout
Latitude
Unknown
Longitude
Unknown
Altitude
Unknown
Speed
Unknown
Apparent Right ascension
Unknown
Apparent Declination
Unknown
Sunlit
N/A
Visualization observer readout
Local Sidereal Time
07:12:05
Azimuth
Unknown
Elevation
Unknown
Doppler factor
Unknown
Orbital elements
Apogee altitude
1,046.301 km
Perigee altitude
848.147 km
Semi-major axis
7,325.361 km
Eccentricity
0.01353
Inclination
71.0044°
RAAN
189.5676°
Arg. of periapsis
207.1046°
True anomaly
261.56087°
Mean anomaly
263.0962°
Eccentric anomaly
262.3282°
Mean motion
3.46178 °/min
Orbital period
103.99 mins
BSTAR
0.000019246
Loading maneuver chart data...
Computing Atmospheric mass density...
Loading historical data...
Loading historical data...
Loading historical data...
Loading historical data...
Loading historical data...
Loading historical data...
Loading historical data...

Documentation

Showing up to 5 results
|